GW0720 Weather Reports


Display with metric or nautical units.
time (UTC)temp
F
wind
direction
speed
MPH
gust
MPH
rain 1hr
in
rain 24hr
in
rain mn
in
humidity
%
barometer
mb
20260831004555 75 0 0.0 1.0 0.00 0.00 0.00 87 1020.3
20260831003106 76 0 0.0 0.0 0.00 0.00 0.00 86 1020.0
20260831001557 77 0 0.0 0.0 0.00 0.00 0.00 85 1019.9
20260831000053 78 0 0.0 0.0 0.00 0.00 0.00 84 1020.0
20260830234613 79 0 0.0 0.0 0.00 0.00 0.00 82 1020.0
20260830233055 80 0 0.0 0.0 0.00 0.00 0.00 80 1020.1
20260830231555 81 0 0.0 0.0 0.00 0.00 0.00 78 1020.1
20260830230105 82 0 0.0 0.0 0.00 0.00 0.00 76 1020.0
20260830224556 84 0 0.0 1.0 0.00 0.00 0.00 72 1020.1
20260830223053 85 0 0.0 3.0 0.00 0.00 0.00 71 1020.0
20260830221605 85 117 1.0 5.0 0.00 0.00 0.00 68 1020.1
20260830220110 86 0 0.0 4.0 0.00 0.00 0.00 67 1020.3
20260830214606 85 84 1.0 4.0 0.00 0.00 0.00 68 1020.2
20260830213108 86 0 1.0 5.0 0.00 0.00 0.00 67 1020.2
20260830211608 86 91 0.0 3.0 0.00 0.00 0.00 69 1020.1
20260830210106 86 26 1.0 4.0 0.00 0.00 0.00 69 1020.0
20260830204607 87 96 2.0 5.0 0.00 0.00 0.00 65 1020.2
20260830203105 87 67 0.0 2.0 0.00 0.00 0.00 70 1020.3
20260830201614 87 0 0.0 3.0 0.00 0.00 0.00 64 1020.4
20260830200054 87 117 0.0 3.0 0.00 0.00 0.00 66 1020.5
20260830194605 88 88 0.0 2.0 0.00 0.00 0.00 66 1020.8
20260830193058 88 236 1.0 5.0 0.00 0.00 0.00 68 1021.1
20260830191602 88 0 0.0 3.0 0.00 0.00 0.00 64 1021.5
20260830190100 88 0 0.0 5.0 0.00 0.00 0.00 65 1021.6
20260830184557 88 0 1.0 6.0 0.00 0.00 0.00 63 1021.8
20260830183100 87 0 1.0 4.0 0.00 0.00 0.00 66 1022.0
20260830181606 87 0 0.0 5.0 0.00 0.00 0.00 69 1022.4
20260830180108 87 0 0.0 3.0 0.00 0.00 0.00 68 1022.6
20260830174613 87 0 0.0 3.0 0.00 0.00 0.00 70 1022.7
20260830173110 87 44 0.0 5.0 0.00 0.00 0.00 67 1022.8
20260830171603 86 0 0.0 5.0 0.00 0.00 0.00 66 1022.9
20260830170110 84 0 0.0 3.0 0.00 0.00 0.00 73 1023.0
20260830164559 84 0 1.0 5.0 0.00 0.00 0.00 73 1023.0
20260830163104 84 0 0.0 3.0 0.00 0.00 0.00 74 1023.1
20260830161604 84 0 0.0 3.0 0.00 0.00 0.00 72 1023.1
20260830160106 84 0 0.0 4.0 0.00 0.00 0.00 71 1023.5
20260830154610 84 0 0.0 5.0 0.00 0.00 0.00 75 1023.8
20260830153106 82 0 0.0 6.0 0.00 0.00 0.00 76 1023.8
20260830151626 82 89 1.0 7.0 0.00 0.00 0.00 76 1023.7
20260830150106 80 70 0.0 5.0 0.00 0.00 0.00 80 1023.6
20260830144606 80 0 0.0 2.0 0.00 0.00 0.00 82 1023.7
20260830143107 79 27 0.0 3.0 0.00 0.00 0.00 83 1023.8
20260830141605 78 47 0.0 3.0 0.00 0.00 0.00 87 1023.8
20260830140104 76 0 0.0 3.0 0.00 0.00 0.00 90 1023.7
20260830134600 74 0 0.0 1.0 0.00 0.00 0.00 93 1024.1
20260830133058 74 0 0.0 2.0 0.00 0.00 0.00 94 1024.2
20260830131608 74 284 0.0 2.0 0.00 0.00 0.00 96 1024.3
20260830130108 73 0 0.0 1.0 0.00 0.00 0.00 96 1024.3
20260830124600 73 0 0.0 2.0 0.00 0.00 0.00 97 1024.5
20260830123106 72 0 0.0 2.0 0.00 0.00 0.00 97 1024.5
20260830121602 72 0 0.0 1.0 0.00 0.00 0.00 97 1024.4
20260830120058 72 0 0.0 2.0 0.00 0.00 0.00 97 1024.2
20260830114603 72 71 0.0 1.0 0.00 0.00 0.00 97 1024.2
20260830113055 72 0 0.0 0.0 0.00 0.00 0.00 97 1024.1
20260830111557 72 0 0.0 1.0 0.00 0.00 0.00 97 1024.0
20260830110106 71 0 0.0 1.0 0.00 0.00 0.00 97 1023.9
20260830104603 71 0 0.0 0.0 0.00 0.00 0.00 97 1023.8
20260830103058 71 0 0.0 0.0 0.00 0.00 0.00 97 1023.7
20260830101601 70 0 0.0 0.0 0.00 0.00 0.00 97 1023.7
20260830100105 70 0 0.0 0.0 0.00 0.00 0.00 97 1023.6
20260830094612 70 0 0.0 0.0 0.00 0.00 0.00 97 1023.5
20260830093101 69 0 0.0 0.0 0.00 0.00 0.00 97 1023.4
20260830091602 69 0 0.0 0.0 0.00 0.00 0.00 97 1023.5
20260830090057 68 0 0.0 0.0 0.00 0.00 0.00 97 1023.6
20260830084607 68 0 0.0 0.0 0.00 0.00 0.00 96 1023.6
20260830083102 68 0 0.0 0.0 0.00 0.00 0.00 95 1023.6
20260830081557 68 0 0.0 0.0 0.00 0.00 0.00 96 1023.7
20260830080058 68 0 0.0 0.0 0.00 0.00 0.00 95 1023.6
20260830074620 68 0 0.0 0.0 0.00 0.00 0.00 95 1023.7
20260830073111 68 0 0.0 0.0 0.00 0.00 0.00 95 1023.8
20260830071601 68 0 0.0 0.0 0.00 0.00 0.00 95 1023.5
20260830070111 68 0 0.0 0.0 0.00 0.00 0.00 95 1023.5
20260830064559 68 0 0.0 0.0 0.00 0.00 0.00 95 1023.8
20260830063101 68 0 0.0 0.0 0.00 0.00 0.00 95 1023.9
20260830061635 68 0 0.0 0.0 0.00 0.00 0.00 95 1023.9
20260830060056 68 0 0.0 0.0 0.00 0.00 0.00 95 1024.1
20260830054602 69 0 0.0 0.0 0.00 0.00 0.00 95 1024.0
20260830053057 69 0 0.0 0.0 0.00 0.00 0.00 95 1024.1
20260830051554 69 0 0.0 0.0 0.00 0.00 0.00 95 1024.3
20260830050113 70 0 0.0 0.0 0.00 0.00 0.00 94 1024.5
20260830044610 70 0 0.0 0.0 0.00 0.00 0.00 94 1024.4
20260830043147 70 0 0.0 0.0 0.00 0.00 0.00 95 1024.5
20260830041613 70 0 0.0 1.0 0.00 0.00 0.00 94 1024.3
20260830040111 70 0 0.0 0.0 0.00 0.00 0.00 94 1024.3
20260830034558 70 0 0.0 0.0 0.00 0.00 0.00 94 1024.2
20260830033108 70 0 0.0 0.0 0.00 0.00 0.00 94 1024.0
20260830031612 70 0 0.0 0.0 0.00 0.00 0.00 94 1023.9
20260830030059 70 0 0.0 0.0 0.00 0.00 0.00 93 1023.8
20260830024610 71 0 0.0 0.0 0.00 0.00 0.00 93 1023.7
20260830023104 71 0 0.0 0.0 0.00 0.00 0.00 93 1023.7
20260830021600 71 0 0.0 0.0 0.00 0.00 0.00 93 1023.6
20260830020107 71 0 0.0 0.0 0.00 0.00 0.00 92 1023.7
20260830014604 71 0 0.0 0.0 0.00 0.00 0.00 91 1023.4
20260830013102 72 0 0.0 0.0 0.00 0.00 0.00 91 1023.4
20260830011603 72 0 0.0 0.0 0.00 0.00 0.00 90 1023.2